Time,TemperatureF,DewpointF,PressureIn,WindDirection,WindDirectionDegrees,WindSpeedMPH,WindSpeedGustMPH,Humidity,HourlyPrecipIn,Conditions,Clouds,dailyrainin,SoftwareType,DateUTC
2013-02-21 00:00:00,36.1,33.5,30.05,SE,144,0.0,0.0,90,0.00,,---,0.01,VWS V14.01,2013-02-21 08:00:00,
2013-02-21 00:05:00,36.0,33.4,30.05,SE,144,0.0,0.0,90,0.00,,---,0.00,VWS V14.01,2013-02-21 08:05:00,
2013-02-21 00:10:00,35.9,33.3,30.05,SE,144,0.0,0.0,90,0.00,,---,0.00,VWS V14.01,2013-02-21 08:10:00,
2013-02-21 00:15:00,35.8,33.4,30.05,SE,144,0.0,0.0,91,0.00,,---,0.00,VWS V14.01,2013-02-21 08:15:00,
2013-02-21 00:20:00,35.7,33.1,30.05,SE,144,0.0,0.0,90,0.00,,---,0.00,VWS V14.01,2013-02-21 08:20:00,
2013-02-21 00:25:00,35.6,33.2,30.06,SE,144,0.0,0.0,91,0.00,,---,0.00,VWS V14.01,2013-02-21 08:25:00,
2013-02-21 00:30:00,35.6,33.2,30.05,SE,144,0.0,0.0,91,0.00,,---,0.00,VWS V14.01,2013-02-21 08:30:00,
2013-02-21 00:35:00,35.5,33.1,30.05,SE,144,0.0,0.0,91,0.00,,---,0.00,VWS V14.01,2013-02-21 08:35:00,
2013-02-21 00:40:00,35.5,33.1,30.05,SE,144,0.0,0.0,91,0.00,,---,0.00,VWS V14.01,2013-02-21 08:40:00,
2013-02-21 00:45:00,35.5,33.1,30.05,SE,144,0.0,0.0,91,0.00,,---,0.00,VWS V14.01,2013-02-21 08:45:00,
2013-02-21 00:50:00,35.5,33.1,30.05,SE,144,0.0,0.0,91,0.00,,---,0.00,VWS V14.01,2013-02-21 08:50:00,
2013-02-21 00:55:00,35.5,33.1,30.05,SE,144,0.0,0.0,91,0.00,,---,0.00,VWS V14.01,2013-02-21 08:55:00,
2013-02-21 01:00:00,35.3,32.9,30.05,SE,144,0.0,0.0,91,0.00,,---,0.00,VWS V14.01,2013-02-21 09:00:00,
2013-02-21 01:05:00,35.2,32.8,30.05,SE,144,0.0,0.0,91,0.00,,---,0.00,VWS V14.01,2013-02-21 09:05:00,
2013-02-21 01:10:00,35.1,32.7,30.05,SE,144,0.0,0.0,91,0.00,,---,0.00,VWS V14.01,2013-02-21 09:10:00,
2013-02-21 01:15:00,35.0,32.6,30.05,SE,144,0.0,0.0,91,0.00,,---,0.00,VWS V14.01,2013-02-21 09:15:00,
2013-02-21 01:20:00,34.8,32.5,30.05,SE,144,0.0,1.0,91,0.00,,---,0.00,VWS V14.01,2013-02-21 09:20:00,
2013-02-21 01:25:00,34.7,32.3,30.05,SE,144,0.0,0.0,91,0.00,,---,0.00,VWS V14.01,2013-02-21 09:25:00,
2013-02-21 01:30:00,34.7,32.3,30.05,SE,144,0.0,0.0,91,0.00,,---,0.00,VWS V14.01,2013-02-21 09:30:00,
2013-02-21 01:35:00,34.8,32.7,30.05,SE,144,0.0,0.0,92,0.00,,---,0.00,VWS V14.01,2013-02-21 09:35:00,
2013-02-21 01:40:00,34.6,32.5,30.06,SE,144,0.0,0.0,92,0.00,,---,0.00,VWS V14.01,2013-02-21 09:40:00,
2013-02-21 01:45:00,34.4,32.3,30.06,SE,144,0.0,0.0,92,0.00,,---,0.00,VWS V14.01,2013-02-21 09:45:00,
2013-02-21 01:50:00,34.4,32.3,30.05,SE,144,0.0,0.0,92,0.00,,---,0.00,VWS V14.01,2013-02-21 09:50:00,
2013-02-21 01:55:00,34.4,32.3,30.06,SE,144,0.0,0.0,92,0.00,,---,0.00,VWS V14.01,2013-02-21 09:55:00,
2013-02-21 02:00:00,34.3,32.2,30.06,SE,144,0.0,0.0,92,0.00,,---,0.00,VWS V14.01,2013-02-21 10:00:00,
2013-02-21 02:05:00,34.3,32.2,30.06,SE,144,0.0,1.0,92,0.00,,---,0.00,VWS V14.01,2013-02-21 10:05:00,
2013-02-21 02:10:00,34.1,32.0,30.06,SE,144,0.0,1.0,92,0.00,,---,0.00,VWS V14.01,2013-02-21 10:10:00,
2013-02-21 02:15:00,34.0,31.9,30.05,SE,144,0.0,0.0,92,0.00,,---,0.00,VWS V14.01,2013-02-21 10:15:00,
2013-02-21 02:20:00,33.8,31.7,30.05,SE,144,0.0,1.0,92,0.00,,---,0.00,VWS V14.01,2013-02-21 10:20:00,
2013-02-21 02:25:00,33.7,31.6,30.05,SE,144,0.0,0.0,92,0.00,,---,0.00,VWS V14.01,2013-02-21 10:25:00,
2013-02-21 02:30:00,33.7,31.6,30.05,SE,144,0.0,0.0,92,0.00,,---,0.00,VWS V14.01,2013-02-21 10:30:00,
2013-02-21 02:35:00,33.7,31.6,30.04,SE,144,0.0,0.0,92,0.00,,---,0.00,VWS V14.01,2013-02-21 10:35:00,
2013-02-21 02:40:00,33.7,31.6,30.04,SE,144,0.0,0.0,92,0.00,,---,0.00,VWS V14.01,2013-02-21 10:40:00,
2013-02-21 02:45:00,33.6,31.5,30.04,SE,144,0.0,0.0,92,0.00,,---,0.00,VWS V14.01,2013-02-21 10:45:00,
2013-02-21 02:50:00,33.5,31.4,30.04,SE,144,0.0,0.0,92,0.00,,---,0.00,VWS V14.01,2013-02-21 10:50:00,
2013-02-21 02:55:00,33.5,31.4,30.04,SE,144,0.0,0.0,92,0.00,,---,0.00,VWS V14.01,2013-02-21 10:55:00,
2013-02-21 03:00:00,33.3,31.2,30.04,SE,144,0.0,0.0,92,0.00,,---,0.00,VWS V14.01,2013-02-21 11:00:00,
2013-02-21 03:05:00,33.2,31.1,30.04,SE,144,0.0,0.0,92,0.00,,---,0.00,VWS V14.01,2013-02-21 11:05:00,
2013-02-21 03:10:00,33.2,31.1,30.04,SE,144,0.0,0.0,92,0.00,,---,0.00,VWS V14.01,2013-02-21 11:10:00,
2013-02-21 03:15:00,33.3,31.5,30.04,SE,144,0.0,0.0,93,0.00,,---,0.00,VWS V14.01,2013-02-21 11:15:00,
2013-02-21 03:20:00,33.3,31.2,30.05,SE,144,0.0,0.0,92,0.00,,---,0.00,VWS V14.01,2013-02-21 11:20:00,
2013-02-21 03:25:00,33.3,31.5,30.04,SE,144,0.0,0.0,93,0.00,,---,0.00,VWS V14.01,2013-02-21 11:25:00,
2013-02-21 03:30:00,33.4,31.6,30.04,SE,144,0.0,0.0,93,0.00,,---,0.00,VWS V14.01,2013-02-21 11:30:00,
2013-02-21 03:35:00,33.5,31.7,30.04,SE,144,0.0,0.0,93,0.00,,---,0.00,VWS V14.01,2013-02-21 11:35:00,
2013-02-21 03:40:00,33.5,31.7,30.04,SE,144,0.0,0.0,93,0.00,,---,0.00,VWS V14.01,2013-02-21 11:40:00,
2013-02-21 03:45:00,33.3,31.5,30.04,SE,144,0.0,0.0,93,0.00,,---,0.00,VWS V14.01,2013-02-21 11:45:00,
2013-02-21 03:50:00,33.1,31.3,30.04,SE,144,0.0,1.0,93,0.00,,---,0.00,VWS V14.01,2013-02-21 11:50:00,
2013-02-21 03:55:00,33.0,31.2,30.04,SE,144,0.0,1.0,93,0.00,,---,0.00,VWS V14.01,2013-02-21 11:55:00,
2013-02-21 04:00:00,32.9,31.1,30.04,SE,144,0.0,1.0,93,0.00,,---,0.00,VWS V14.01,2013-02-21 12:00:00,
2013-02-21 04:05:00,32.8,31.0,30.04,SE,144,0.0,0.0,93,0.00,,---,0.00,VWS V14.01,2013-02-21 12:05:00,
2013-02-21 04:10:00,32.6,30.8,30.04,SE,144,0.0,0.0,93,0.00,,---,0.00,VWS V14.01,2013-02-21 12:10:00,
2013-02-21 04:15:00,32.6,30.8,30.05,SE,144,0.0,0.0,93,0.00,,---,0.00,VWS V14.01,2013-02-21 12:15:00,
2013-02-21 04:20:00,32.6,30.8,30.05,SE,144,0.0,0.0,93,0.00,,---,0.00,VWS V14.01,2013-02-21 12:20:00,
2013-02-21 04:25:00,32.5,30.7,30.05,SE,144,0.0,0.0,93,0.00,,---,0.00,VWS V14.01,2013-02-21 12:25:00,
2013-02-21 04:30:00,32.3,30.5,30.05,SE,144,0.0,0.0,93,0.00,,---,0.00,VWS V14.01,2013-02-21 12:30:00,
2013-02-21 04:35:00,32.3,30.5,30.05,SE,144,0.0,0.0,93,0.00,,---,0.00,VWS V14.01,2013-02-21 12:35:00,
2013-02-21 04:40:00,32.3,30.5,30.06,SE,144,0.0,0.0,93,0.00,,---,0.00,VWS V14.01,2013-02-21 12:40:00,
2013-02-21 04:45:00,32.3,30.5,30.06,SE,144,0.0,0.0,93,0.00,,---,0.00,VWS V14.01,2013-02-21 12:45:00,
2013-02-21 04:50:00,32.4,30.6,30.06,SE,144,0.0,1.0,93,0.00,,---,0.00,VWS V14.01,2013-02-21 12:50:00,
2013-02-21 04:55:00,32.4,30.6,30.06,SE,144,0.0,0.0,93,0.00,,---,0.00,VWS V14.01,2013-02-21 12:55:00,
2013-02-21 05:00:00,32.4,30.6,30.07,SE,144,0.0,0.0,93,0.00,,---,0.00,VWS V14.01,2013-02-21 13:00:00,
2013-02-21 05:05:00,32.4,30.6,30.07,SE,144,0.0,0.0,93,0.00,,---,0.00,VWS V14.01,2013-02-21 13:05:00,
2013-02-21 05:10:00,32.3,30.5,30.07,SE,144,0.0,0.0,93,0.00,,---,0.00,VWS V14.01,2013-02-21 13:10:00,
2013-02-21 05:14:00,32.3,30.5,30.07,SE,144,0.0,0.0,93,0.00,,---,0.00,VWS V14.01,2013-02-21 13:14:00,
2013-02-21 05:19:00,32.3,30.5,30.07,ESE,116,0.0,0.0,93,0.00,,---,0.00,VWS V14.01,2013-02-21 13:19:00,
2013-02-21 05:24:00,32.1,30.3,30.07,ESE,116,0.0,0.0,93,0.00,,---,0.00,VWS V14.01,2013-02-21 13:24:00,
2013-02-21 05:29:00,31.9,30.1,30.07,ESE,116,0.0,0.0,93,0.00,,---,0.00,VWS V14.01,2013-02-21 13:29:00,
2013-02-21 05:34:00,31.9,30.1,30.07,ESE,116,0.0,0.0,93,0.00,,---,0.00,VWS V14.01,2013-02-21 13:34:00,
2013-02-21 05:39:00,32.0,30.2,30.06,ESE,116,0.0,0.0,93,0.00,,---,0.00,VWS V14.01,2013-02-21 13:39:00,
2013-02-21 05:44:00,31.9,30.1,30.06,ESE,116,0.0,0.0,93,0.00,,---,0.00,VWS V14.01,2013-02-21 13:44:00,
2013-02-21 05:49:00,31.8,30.0,30.07,ESE,116,0.0,0.0,93,0.00,,---,0.00,VWS V14.01,2013-02-21 13:49:00,
2013-02-21 05:54:00,31.6,29.8,30.06,ESE,116,0.0,0.0,93,0.00,,---,0.00,VWS V14.01,2013-02-21 13:54:00,
2013-02-21 05:59:00,31.5,29.7,30.07,ESE,116,0.0,0.0,93,0.00,,---,0.00,VWS V14.01,2013-02-21 13:59:00,
2013-02-21 06:04:00,31.5,29.7,30.07,ESE,116,0.0,0.0,93,0.00,,---,0.00,VWS V14.01,2013-02-21 14:04:00,
2013-02-21 06:09:00,31.4,29.6,30.07,ESE,116,0.0,0.0,93,0.00,,---,0.00,VWS V14.01,2013-02-21 14:09:00,
2013-02-21 06:14:00,31.5,29.7,30.07,ESE,116,0.0,0.0,93,0.00,,---,0.00,VWS V14.01,2013-02-21 14:14:00,
2013-02-21 06:19:00,31.5,29.7,30.08,ESE,116,0.0,0.0,93,0.00,,---,0.00,VWS V14.01,2013-02-21 14:19:00,
2013-02-21 06:24:00,31.5,29.7,30.08,ESE,116,0.0,0.0,93,0.00,,---,0.00,VWS V14.01,2013-02-21 14:24:00,
2013-02-21 06:29:00,31.4,29.6,30.07,ESE,116,0.0,1.0,93,0.00,,---,0.00,VWS V14.01,2013-02-21 14:29:00,
2013-02-21 06:34:00,31.2,29.4,30.08,ESE,116,0.0,1.0,93,0.00,,---,0.00,VWS V14.01,2013-02-21 14:34:00,
2013-02-21 06:39:00,31.1,29.3,30.08,ESE,116,0.0,1.0,93,0.00,,---,0.00,VWS V14.01,2013-02-21 14:39:00,
2013-02-21 06:44:00,31.1,29.3,30.08,ESE,116,0.0,0.0,93,0.00,,---,0.00,VWS V14.01,2013-02-21 14:44:00,
2013-02-21 06:49:00,31.2,29.7,30.08,ESE,116,0.0,0.0,94,0.00,,---,0.00,VWS V14.01,2013-02-21 14:49:00,
2013-02-21 06:54:00,31.3,29.8,30.08,ESE,116,0.0,0.0,94,0.00,,---,0.00,VWS V14.01,2013-02-21 14:54:00,
2013-02-21 06:59:00,31.3,29.8,30.08,ESE,116,0.0,0.0,94,0.00,,---,0.00,VWS V14.01,2013-02-21 14:59:00,
2013-02-21 07:04:00,31.4,29.9,30.08,ESE,116,0.0,0.0,94,0.00,,---,0.00,VWS V14.01,2013-02-21 15:04:00,
2013-02-21 07:09:00,31.5,30.0,30.08,ESE,116,0.0,0.0,94,0.00,,---,0.00,VWS V14.01,2013-02-21 15:09:00,
2013-02-21 07:14:00,31.7,30.2,30.08,ESE,116,0.0,0.0,94,0.00,,---,0.00,VWS V14.01,2013-02-21 15:14:00,
2013-02-21 07:19:00,31.9,30.4,30.08,ESE,116,0.0,0.0,94,0.00,,---,0.00,VWS V14.01,2013-02-21 15:19:00,
2013-02-21 07:24:00,32.0,32.0,30.08,ESE,116,0.0,0.0,100,0.00,,---,0.00,VWS V14.01,2013-02-21 15:24:00,
2013-02-21 07:29:00,32.5,31.0,30.08,ESE,116,0.0,0.0,94,0.00,,---,0.00,VWS V14.01,2013-02-21 15:29:00,
2013-02-21 07:34:00,32.9,31.4,30.08,ESE,116,0.0,0.0,94,0.00,,---,0.00,VWS V14.01,2013-02-21 15:34:00,
2013-02-21 07:39:00,33.1,31.6,30.09,ESE,116,0.0,0.0,94,0.01,,---,0.01,VWS V14.01,2013-02-21 15:39:00,
2013-02-21 07:44:00,33.8,32.3,30.09,ESE,116,0.0,0.0,94,0.01,,---,0.01,VWS V14.01,2013-02-21 15:44:00,
2013-02-21 07:49:00,34.9,33.6,30.09,ESE,116,0.0,1.0,95,0.01,,---,0.01,VWS V14.01,2013-02-21 15:49:00,
2013-02-21 07:54:00,35.6,34.3,30.09,ESE,116,0.0,0.0,95,0.01,,---,0.01,VWS V14.01,2013-02-21 15:54:00,
2013-02-21 07:59:00,36.0,34.7,30.10,ESE,116,0.0,0.0,95,0.01,,---,0.01,VWS V14.01,2013-02-21 15:59:00,
2013-02-21 08:04:00,36.5,35.2,30.10,ESE,116,0.0,0.0,95,0.01,,---,0.01,VWS V14.01,2013-02-21 16:04:00,
2013-02-21 08:09:00,37.0,35.7,30.10,ESE,116,0.0,0.0,95,0.01,,---,0.01,VWS V14.01,2013-02-21 16:09:00,
2013-02-21 08:14:00,37.5,36.2,30.10,ESE,116,0.0,0.0,95,0.01,,---,0.01,VWS V14.01,2013-02-21 16:14:00,
2013-02-21 08:19:00,37.9,36.6,30.10,ESE,116,0.0,1.0,95,0.01,,---,0.01,VWS V14.01,2013-02-21 16:19:00,
2013-02-21 08:24:00,38.4,37.1,30.11,NNW,341,0.0,1.0,95,0.01,,---,0.01,VWS V14.01,2013-02-21 16:24:00,
2013-02-21 08:29:00,38.9,37.6,30.11,NW,308,1.0,1.0,95,0.01,,---,0.01,VWS V14.01,2013-02-21 16:29:00,
2013-02-21 08:34:00,39.5,38.2,30.11,WNW,302,0.0,1.0,95,0.01,,---,0.01,VWS V14.01,2013-02-21 16:34:00,
2013-02-21 08:39:00,39.8,38.2,30.11,West,279,1.0,2.0,94,0.01,,---,0.01,VWS V14.01,2013-02-21 16:39:00,
2013-02-21 08:44:00,40.7,38.8,30.11,NW,313,0.0,1.0,93,0.00,,---,0.01,VWS V14.01,2013-02-21 16:44:00,
2013-02-21 08:49:00,41.5,39.3,30.12,NW,313,2.0,2.0,92,0.00,,---,0.01,VWS V14.01,2013-02-21 16:49:00,
2013-02-21 08:54:00,41.7,38.7,30.12,West,265,1.0,2.0,89,0.00,,---,0.01,VWS V14.01,2013-02-21 16:54:00,
2013-02-21 08:59:00,42.7,39.1,30.12,NW,318,1.0,4.0,87,0.00,,---,0.01,VWS V14.01,2013-02-21 16:59:00,
2013-02-21 09:04:00,44.3,39.5,30.12,NW,308,3.0,6.0,83,0.00,,---,0.01,VWS V14.01,2013-02-21 17:04:00,
2013-02-21 09:09:00,45.0,38.9,30.12,NW,304,1.0,6.0,79,0.00,,---,0.01,VWS V14.01,2013-02-21 17:09:00,
2013-02-21 09:14:00,45.7,38.2,30.12,NW,316,4.0,4.0,75,0.00,,---,0.01,VWS V14.01,2013-02-21 17:14:00,
2013-02-21 09:19:00,46.2,37.7,30.12,West,280,4.0,4.0,72,0.00,,---,0.01,VWS V14.01,2013-02-21 17:19:00,
2013-02-21 09:24:00,46.6,37.3,30.12,NNW,329,2.0,6.0,70,0.00,,---,0.01,VWS V14.01,2013-02-21 17:24:00,
2013-02-21 09:29:00,46.9,37.3,30.13,NW,308,2.0,7.0,69,0.00,,---,0.01,VWS V14.01,2013-02-21 17:29:00,
2013-02-21 09:34:00,47.3,37.3,30.13,NNW,328,6.0,7.0,68,0.00,,---,0.01,VWS V14.01,2013-02-21 17:34:00,
2013-02-21 09:39:00,47.7,37.3,30.13,West,267,1.0,7.0,67,0.00,,---,0.01,VWS V14.01,2013-02-21 17:39:00,
2013-02-21 09:44:00,47.9,37.1,30.13,WNW,284,0.0,6.0,66,0.00,,---,0.01,VWS V14.01,2013-02-21 17:44:00,
2013-02-21 09:49:00,48.3,37.1,30.13,WNW,298,4.0,6.0,65,0.00,,---,0.01,VWS V14.01,2013-02-21 17:49:00,
2013-02-21 09:54:00,48.7,35.9,30.14,WNW,290,3.0,11.0,61,0.00,,---,0.01,VWS V14.01,2013-02-21 17:54:00,
2013-02-21 09:59:00,48.7,36.3,30.13,WSW,254,2.0,11.0,62,0.00,,---,0.01,VWS V14.01,2013-02-21 17:59:00,
2013-02-21 10:04:00,49.0,35.7,30.13,NNW,337,5.0,11.0,60,0.00,,---,0.01,VWS V14.01,2013-02-21 18:04:00,
2013-02-21 10:09:00,49.2,35.5,30.14,North,11,7.0,11.0,59,0.00,,---,0.01,VWS V14.01,2013-02-21 18:09:00,
2013-02-21 10:14:00,49.4,35.3,30.13,West,271,3.0,6.0,58,0.00,,---,0.01,VWS V14.01,2013-02-21 18:14:00,
2013-02-21 10:19:00,49.3,34.7,30.13,NW,307,0.0,7.0,57,0.00,,---,0.01,VWS V14.01,2013-02-21 18:19:00,
2013-02-21 10:24:00,49.6,35.5,30.13,NW,305,3.0,10.0,58,0.00,,---,0.01,VWS V14.01,2013-02-21 18:24:00,
2013-02-21 10:29:00,50.0,34.9,30.14,NW,317,4.0,11.0,56,0.00,,---,0.01,VWS V14.01,2013-02-21 18:29:00,
2013-02-21 10:34:00,50.3,35.2,30.13,SW,234,5.0,6.0,56,0.00,,---,0.01,VWS V14.01,2013-02-21 18:34:00,
2013-02-21 10:39:00,50.9,35.8,30.14,SW,232,4.0,9.0,56,0.00,,---,0.01,VWS V14.01,2013-02-21 18:39:00,
2013-02-21 10:44:00,51.0,35.0,30.14,WNW,294,3.0,9.0,54,0.00,,---,0.01,VWS V14.01,2013-02-21 18:44:00,
2013-02-21 10:49:00,51.4,35.8,30.14,West,277,5.0,11.0,55,0.00,,---,0.01,VWS V14.01,2013-02-21 18:49:00,
2013-02-21 10:54:00,51.5,35.0,30.14,NW,321,3.0,12.0,53,0.00,,---,0.01,VWS V14.01,2013-02-21 18:54:00,
2013-02-21 10:59:00,51.6,35.5,30.13,NW,320,7.0,14.0,54,0.00,,---,0.01,VWS V14.01,2013-02-21 18:59:00,
2013-02-21 11:04:00,51.8,35.7,30.13,NNW,336,4.0,13.0,54,0.00,,---,0.01,VWS V14.01,2013-02-21 19:04:00,
2013-02-21 11:09:00,52.4,35.8,30.13,NNW,344,4.0,13.0,53,0.00,,---,0.01,VWS V14.01,2013-02-21 19:09:00,
2013-02-21 11:14:00,52.8,34.7,30.13,NW,310,5.0,13.0,50,0.00,,---,0.01,VWS V14.01,2013-02-21 19:14:00,
2013-02-21 11:19:00,52.9,35.3,30.13,WNW,288,3.0,13.0,51,0.00,,---,0.01,VWS V14.01,2013-02-21 19:19:00,
2013-02-21 11:24:00,53.1,35.0,30.13,NNW,335,0.0,11.0,50,0.00,,---,0.01,VWS V14.01,2013-02-21 19:24:00,
2013-02-21 11:29:00,53.7,35.0,30.13,ENE,63,3.0,11.0,49,0.00,,---,0.01,VWS V14.01,2013-02-21 19:29:00,
2013-02-21 11:34:00,54.3,35.6,30.12,NNW,347,0.0,5.0,49,0.00,,---,0.01,VWS V14.01,2013-02-21 19:34:00,
2013-02-21 11:39:00,55.0,35.2,30.12,SW,226,0.0,8.0,47,0.00,,---,0.01,VWS V14.01,2013-02-21 19:39:00,
2013-02-21 11:44:00,55.2,34.8,30.12,WNW,299,3.0,13.0,46,0.00,,---,0.01,VWS V14.01,2013-02-21 19:44:00,
2013-02-21 11:49:00,54.4,35.1,30.13,WSW,255,0.0,13.0,48,0.00,,---,0.01,VWS V14.01,2013-02-21 19:49:00,
2013-02-21 11:54:00,54.7,34.3,30.12,WNW,296,1.0,7.0,46,0.00,,---,0.01,VWS V14.01,2013-02-21 19:54:00,
2013-02-21 11:59:00,55.2,34.8,30.12,NE,53,4.0,7.0,46,0.00,,---,0.01,VWS V14.01,2013-02-21 19:59:00,
2013-02-21 12:04:00,55.7,35.3,30.12,NNE,17,4.0,4.0,46,0.00,,---,0.01,VWS V14.01,2013-02-21 20:04:00,
2013-02-21 12:09:00,55.5,34.0,30.12,WNW,292,5.0,11.0,44,0.00,,---,0.01,VWS V14.01,2013-02-21 20:09:00,
2013-02-21 12:14:00,54.7,33.2,30.12,West,263,0.0,13.0,44,0.00,,---,0.01,VWS V14.01,2013-02-21 20:14:00,
2013-02-21 12:19:00,54.6,33.7,30.11,NW,306,10.0,16.0,45,0.00,,---,0.01,VWS V14.01,2013-02-21 20:19:00,
2013-02-21 12:24:00,54.7,33.2,30.12,NW,315,7.0,10.0,44,0.00,,---,0.01,VWS V14.01,2013-02-21 20:24:00,
2013-02-21 12:29:00,54.9,33.4,30.11,NW,310,7.0,10.0,44,0.00,,---,0.01,VWS V14.01,2013-02-21 20:29:00,
2013-02-21 12:34:00,55.3,32.6,30.11,West,276,3.0,9.0,42,0.00,,---,0.01,VWS V14.01,2013-02-21 20:34:00,
2013-02-21 12:39:00,55.5,32.8,30.11,NNW,337,5.0,9.0,42,0.00,,---,0.01,VWS V14.01,2013-02-21 20:39:00,
2013-02-21 12:44:00,55.5,33.4,30.11,WSW,253,5.0,9.0,43,0.00,,---,0.01,VWS V14.01,2013-02-21 20:44:00,
2013-02-21 12:49:00,55.4,32.1,30.10,WNW,293,8.0,10.0,41,0.00,,---,0.01,VWS V14.01,2013-02-21 20:49:00,
2013-02-21 12:54:00,55.7,32.4,30.10,NNW,327,5.0,6.0,41,0.00,,---,0.01,VWS V14.01,2013-02-21 20:54:00,
2013-02-21 12:59:00,56.4,33.0,30.10,NW,324,0.0,8.0,41,0.00,,---,0.01,VWS V14.01,2013-02-21 20:59:00,
2013-02-21 13:04:00,57.2,31.8,30.10,NNW,334,0.0,8.0,38,0.00,,---,0.01,VWS V14.01,2013-02-21 21:04:00,
2013-02-21 13:09:00,57.4,32.0,30.10,SW,235,7.0,8.0,38,0.00,,---,0.01,VWS V14.01,2013-02-21 21:09:00,
2013-02-21 13:14:00,56.9,32.2,30.10,North,349,2.0,4.0,39,0.00,,---,0.01,VWS V14.01,2013-02-21 21:14:00,
2013-02-21 13:19:00,57.3,31.9,30.10,WNW,286,2.0,7.0,38,0.00,,---,0.01,VWS V14.01,2013-02-21 21:19:00,
2013-02-21 13:24:00,57.4,31.4,30.09,West,273,1.0,7.0,37,0.00,,---,0.01,VWS V14.01,2013-02-21 21:24:00,
2013-02-21 13:29:00,57.5,31.5,30.09,WNW,298,5.0,7.0,37,0.00,,---,0.01,VWS V14.01,2013-02-21 21:29:00,
2013-02-21 13:34:00,57.7,31.6,30.09,NE,38,7.0,7.0,37,0.00,,---,0.01,VWS V14.01,2013-02-21 21:34:00,
2013-02-21 13:39:00,58.1,32.0,30.09,NW,309,1.0,7.0,37,0.00,,---,0.01,VWS V14.01,2013-02-21 21:39:00,
2013-02-21 13:44:00,57.9,31.1,30.09,NNW,336,2.0,6.0,36,0.00,,---,0.01,VWS V14.01,2013-02-21 21:44:00,
2013-02-21 13:49:00,57.9,31.8,30.09,WNW,285,3.0,9.0,37,0.00,,---,0.01,VWS V14.01,2013-02-21 21:49:00,
2013-02-21 13:54:00,57.8,31.0,30.09,West,267,3.0,7.0,36,0.00,,---,0.01,VWS V14.01,2013-02-21 21:54:00,
2013-02-21 13:59:00,57.9,32.5,30.09,East,98,0.0,7.0,38,0.00,,---,0.01,VWS V14.01,2013-02-21 21:59:00,
2013-02-21 14:04:00,58.2,32.1,30.08,NNW,344,1.0,5.0,37,0.00,,---,0.01,VWS V14.01,2013-02-21 22:04:00,
2013-02-21 14:09:00,58.2,31.4,30.09,NNE,27,0.0,6.0,36,0.00,,---,0.01,VWS V14.01,2013-02-21 22:09:00,
2013-02-21 14:14:00,58.3,32.2,30.09,South,190,0.0,5.0,37,0.00,,---,0.01,VWS V14.01,2013-02-21 22:14:00,
2013-02-21 14:19:00,58.3,32.2,30.08,SW,232,0.0,5.0,37,0.00,,---,0.01,VWS V14.01,2013-02-21 22:19:00,
2013-02-21 14:24:00,58.4,32.9,30.08,WNW,303,2.0,4.0,38,0.00,,---,0.01,VWS V14.01,2013-02-21 22:24:00,
2013-02-21 14:29:00,58.8,31.9,30.08,West,269,3.0,4.0,36,0.00,,---,0.01,VWS V14.01,2013-02-21 22:29:00,
2013-02-21 14:34:00,59.0,32.1,30.08,SW,218,2.0,2.0,36,0.00,,---,0.01,VWS V14.01,2013-02-21 22:34:00,
2013-02-21 14:39:00,59.2,32.3,30.08,WSW,245,4.0,4.0,36,0.00,,---,0.01,VWS V14.01,2013-02-21 22:39:00,
2013-02-21 14:44:00,59.4,31.0,30.08,NE,42,1.0,8.0,34,0.00,,---,0.01,VWS V14.01,2013-02-21 22:44:00,
2013-02-21 14:49:00,59.4,31.8,30.08,West,279,3.0,8.0,35,0.00,,---,0.01,VWS V14.01,2013-02-21 22:49:00,
2013-02-21 14:54:00,59.3,31.0,30.07,NNE,15,2.0,5.0,34,0.00,,---,0.01,VWS V14.01,2013-02-21 22:54:00,
2013-02-21 14:59:00,59.5,31.1,30.07,NW,323,0.0,5.0,34,0.00,,---,0.01,VWS V14.01,2013-02-21 22:59:00,
2013-02-21 15:04:00,59.5,31.1,30.08,ENE,59,1.0,7.0,34,0.00,,---,0.01,VWS V14.01,2013-02-21 23:04:00,
2013-02-21 15:09:00,59.6,31.2,30.07,NNW,327,0.0,7.0,34,0.00,,---,0.01,VWS V14.01,2013-02-21 23:09:00,
2013-02-21 15:14:00,59.9,30.8,30.07,SSW,203,1.0,4.0,33,0.00,,---,0.01,VWS V14.01,2013-02-21 23:14:00,
2013-02-21 15:19:00,59.9,31.5,30.07,WSW,237,1.0,10.0,34,0.00,,---,0.01,VWS V14.01,2013-02-21 23:19:00,
2013-02-21 15:24:00,59.6,31.2,30.07,WNW,290,3.0,7.0,34,0.00,,---,0.01,VWS V14.01,2013-02-21 23:24:00,
2013-02-21 15:29:00,59.5,31.1,30.08,WNW,298,1.0,10.0,34,0.00,,---,0.01,VWS V14.01,2013-02-21 23:29:00,
2013-02-21 15:34:00,59.5,31.9,30.08,NW,326,2.0,5.0,35,0.00,,---,0.01,VWS V14.01,2013-02-21 23:34:00,
2013-02-21 15:39:00,59.5,31.1,30.07,SW,234,2.0,7.0,34,0.00,,---,0.01,VWS V14.01,2013-02-21 23:39:00,
2013-02-21 15:44:00,59.4,31.0,30.07,South,188,1.0,4.0,34,0.00,,---,0.01,VWS V14.01,2013-02-21 23:44:00,
2013-02-21 15:49:00,59.1,32.2,30.07,NW,306,0.0,10.0,36,0.00,,---,0.01,VWS V14.01,2013-02-21 23:49:00,
2013-02-21 15:54:00,59.0,32.1,30.07,SW,229,1.0,9.0,36,0.00,,---,0.01,VWS V14.01,2013-02-21 23:54:00,
2013-02-21 15:59:00,59.0,32.1,30.07,WNW,292,3.0,9.0,36,0.00,,---,0.01,VWS V14.01,2013-02-21 23:59:00,
2013-02-21 16:04:00,59.0,32.8,30.07,NNE,15,0.0,5.0,37,0.00,,---,0.01,VWS V14.01,2013-02-22 00:04:00,
2013-02-21 16:09:00,59.0,33.5,30.07,SW,236,0.0,5.0,38,0.00,,---,0.01,VWS V14.01,2013-02-22 00:09:00,
2013-02-21 16:14:00,58.8,32.6,30.07,NW,304,1.0,6.0,37,0.00,,---,0.01,VWS V14.01,2013-02-22 00:14:00,
2013-02-21 16:19:00,58.5,33.0,30.07,West,266,0.0,6.0,38,0.00,,---,0.01,VWS V14.01,2013-02-22 00:19:00,
2013-02-21 16:24:00,58.3,33.5,30.07,West,275,0.0,2.0,39,0.00,,---,0.01,VWS V14.01,2013-02-22 00:24:00,
2013-02-21 16:29:00,58.2,33.4,30.08,WSW,242,2.0,2.0,39,0.00,,---,0.01,VWS V14.01,2013-02-22 00:29:00,
2013-02-21 16:34:00,58.0,33.8,30.08,WSW,257,0.0,4.0,40,0.00,,---,0.01,VWS V14.01,2013-02-22 00:34:00,
2013-02-21 16:39:00,57.8,34.3,30.08,SW,230,0.0,4.0,41,0.00,,---,0.01,VWS V14.01,2013-02-22 00:39:00,
2013-02-21 16:44:00,57.4,34.5,30.08,West,277,2.0,3.0,42,0.00,,---,0.01,VWS V14.01,2013-02-22 00:44:00,
2013-02-21 16:49:00,57.1,34.8,30.07,WSW,237,1.0,4.0,43,0.00,,---,0.01,VWS V14.01,2013-02-22 00:49:00,
2013-02-21 16:54:00,56.7,34.5,30.07,WSW,240,0.0,3.0,43,0.00,,---,0.01,VWS V14.01,2013-02-22 00:54:00,
2013-02-21 16:59:00,56.3,34.7,30.08,NW,317,0.0,4.0,44,0.00,,---,0.01,VWS V14.01,2013-02-22 00:59:00,
2013-02-21 17:04:00,55.9,35.4,30.08,West,278,0.0,1.0,46,0.00,,---,0.01,VWS V14.01,2013-02-22 01:04:00,
2013-02-21 17:09:00,55.4,36.1,30.09,West,277,0.0,1.0,48,0.00,,---,0.01,VWS V14.01,2013-02-22 01:09:00,
2013-02-21 17:14:00,54.6,36.8,30.09,West,277,0.0,0.0,51,0.00,,---,0.01,VWS V14.01,2013-02-22 01:14:00,
2013-02-21 17:19:00,53.9,37.2,30.08,SW,227,0.0,0.0,53,0.00,,---,0.01,VWS V14.01,2013-02-22 01:19:00,
2013-02-21 17:24:00,53.1,37.4,30.09,SW,227,0.0,0.0,55,0.00,,---,0.01,VWS V14.01,2013-02-22 01:24:00,
2013-02-21 17:29:00,52.5,37.7,30.09,SW,227,0.0,0.0,57,0.00,,---,0.01,VWS V14.01,2013-02-22 01:29:00,
2013-02-21 17:34:00,51.8,37.1,30.09,SW,227,0.0,0.0,57,0.00,,---,0.01,VWS V14.01,2013-02-22 01:34:00,
2013-02-21 17:39:00,51.4,37.1,30.09,SW,227,0.0,0.0,58,0.00,,---,0.01,VWS V14.01,2013-02-22 01:39:00,
2013-02-21 17:44:00,50.9,37.5,30.09,SW,227,0.0,0.0,60,0.00,,---,0.01,VWS V14.01,2013-02-22 01:44:00,
2013-02-21 17:49:00,50.5,37.6,30.09,SW,227,0.0,0.0,61,0.00,,---,0.01,VWS V14.01,2013-02-22 01:49:00,
2013-02-21 17:54:00,50.1,37.6,30.09,SW,227,0.0,0.0,62,0.00,,---,0.01,VWS V14.01,2013-02-22 01:54:00,
2013-02-21 17:59:00,49.6,37.5,30.09,SW,227,0.0,0.0,63,0.00,,---,0.01,VWS V14.01,2013-02-22 01:59:00,
2013-02-21 18:04:00,49.2,37.6,30.09,SW,227,0.0,0.0,64,0.00,,---,0.01,VWS V14.01,2013-02-22 02:04:00,
2013-02-21 18:09:00,48.7,37.5,30.09,SW,227,0.0,0.0,65,0.00,,---,0.01,VWS V14.01,2013-02-22 02:09:00,
2013-02-21 18:14:00,48.4,37.2,30.09,SW,227,0.0,0.0,65,0.00,,---,0.01,VWS V14.01,2013-02-22 02:14:00,
2013-02-21 18:19:00,48.1,36.9,30.09,SW,227,0.0,0.0,65,0.00,,---,0.01,VWS V14.01,2013-02-22 02:19:00,
2013-02-21 18:24:00,47.8,37.0,30.09,SW,227,0.0,0.0,66,0.00,,---,0.01,VWS V14.01,2013-02-22 02:24:00,
2013-02-21 18:29:00,47.5,37.1,30.09,SW,227,0.0,0.0,67,0.00,,---,0.01,VWS V14.01,2013-02-22 02:29:00,
2013-02-21 18:34:00,47.2,36.8,30.10,SW,227,0.0,0.0,67,0.00,,---,0.01,VWS V14.01,2013-02-22 02:34:00,
2013-02-21 18:39:00,46.9,36.9,30.10,SW,227,0.0,0.0,68,0.00,,---,0.01,VWS V14.01,2013-02-22 02:39:00,
2013-02-21 18:44:00,46.6,37.0,30.11,SW,227,0.0,0.0,69,0.00,,---,0.01,VWS V14.01,2013-02-22 02:44:00,
2013-02-21 18:49:00,46.4,37.2,30.11,SW,227,0.0,0.0,70,0.00,,---,0.01,VWS V14.01,2013-02-22 02:49:00,
2013-02-21 18:54:00,46.3,37.4,30.11,SW,227,0.0,0.0,71,0.00,,---,0.01,VWS V14.01,2013-02-22 02:54:00,
2013-02-21 18:59:00,46.1,37.2,30.11,SW,227,0.0,0.0,71,0.00,,---,0.01,VWS V14.01,2013-02-22 02:59:00,
2013-02-21 19:04:00,45.9,37.0,30.11,SW,227,0.0,0.0,71,0.00,,---,0.01,VWS V14.01,2013-02-22 03:04:00,
2013-02-21 19:09:00,45.6,37.1,30.11,SW,227,0.0,0.0,72,0.00,,---,0.01,VWS V14.01,2013-02-22 03:09:00,
2013-02-21 19:14:00,45.4,36.9,30.11,SW,227,0.0,0.0,72,0.00,,---,0.01,VWS V14.01,2013-02-22 03:14:00,
2013-02-21 19:19:00,45.1,36.6,30.11,SW,227,0.0,0.0,72,0.00,,---,0.01,VWS V14.01,2013-02-22 03:19:00,
2013-02-21 19:24:00,44.9,36.4,30.12,SW,227,0.0,0.0,72,0.00,,---,0.01,VWS V14.01,2013-02-22 03:24:00,
2013-02-21 19:29:00,44.6,36.5,30.12,SW,227,0.0,0.0,73,0.00,,---,0.01,VWS V14.01,2013-02-22 03:29:00,
2013-02-21 19:34:00,44.4,36.3,30.12,SW,227,0.0,0.0,73,0.00,,---,0.01,VWS V14.01,2013-02-22 03:34:00,
2013-02-21 19:39:00,44.1,36.0,30.12,SW,227,0.0,0.0,73,0.00,,---,0.01,VWS V14.01,2013-02-22 03:39:00,
2013-02-21 19:44:00,43.8,36.1,30.12,SW,227,0.0,0.0,74,0.00,,---,0.01,VWS V14.01,2013-02-22 03:44:00,
2013-02-21 19:49:00,43.7,36.0,30.12,SW,227,0.0,0.0,74,0.00,,---,0.01,VWS V14.01,2013-02-22 03:49:00,
2013-02-21 19:54:00,43.5,35.8,30.12,SW,227,0.0,0.0,74,0.00,,---,0.01,VWS V14.01,2013-02-22 03:54:00,
2013-02-21 19:59:00,43.3,35.9,30.12,SW,227,0.0,0.0,75,0.00,,---,0.01,VWS V14.01,2013-02-22 03:59:00,
2013-02-21 20:04:00,43.2,35.8,30.12,SW,227,0.0,0.0,75,0.00,,---,0.01,VWS V14.01,2013-02-22 04:04:00,
2013-02-21 20:09:00,43.0,35.6,30.12,SW,227,0.0,0.0,75,0.00,,---,0.01,VWS V14.01,2013-02-22 04:09:00,
2013-02-21 20:14:00,42.8,35.1,30.12,SW,227,0.0,0.0,74,0.00,,---,0.01,VWS V14.01,2013-02-22 04:14:00,
2013-02-21 20:19:00,42.6,34.9,30.12,SW,227,0.0,0.0,74,0.00,,---,0.01,VWS V14.01,2013-02-22 04:19:00,
2013-02-21 20:24:00,42.4,35.0,30.12,SW,227,0.0,0.0,75,0.00,,---,0.01,VWS V14.01,2013-02-22 04:24:00,
2013-02-21 20:29:00,42.2,34.5,30.12,SW,227,0.0,0.0,74,0.00,,---,0.01,VWS V14.01,2013-02-22 04:29:00,
2013-02-21 20:34:00,42.0,34.7,30.13,SW,227,0.0,0.0,75,0.00,,---,0.01,VWS V14.01,2013-02-22 04:34:00,
2013-02-21 20:39:00,41.8,34.5,30.13,SW,227,0.0,0.0,75,0.00,,---,0.01,VWS V14.01,2013-02-22 04:39:00,
2013-02-21 20:44:00,41.7,34.7,30.13,SW,227,0.0,0.0,76,0.00,,---,0.01,VWS V14.01,2013-02-22 04:44:00,
2013-02-21 20:49:00,41.5,34.2,30.13,SW,227,0.0,0.0,75,0.00,,---,0.01,VWS V14.01,2013-02-22 04:49:00,
2013-02-21 20:54:00,41.3,34.0,30.13,SW,227,0.0,0.0,75,0.00,,---,0.01,VWS V14.01,2013-02-22 04:54:00,
2013-02-21 20:59:00,41.2,34.2,30.13,SW,227,0.0,0.0,76,0.00,,---,0.01,VWS V14.01,2013-02-22 04:59:00,
2013-02-21 21:00:00,41.2,34.2,30.13,SW,227,0.0,0.0,76,0.00,,---,0.01,VWS V14.01,2013-02-22 05:00:00,
2013-02-21 21:05:00,41.1,34.1,30.14,SW,227,0.0,0.0,76,0.00,,---,0.01,VWS V14.01,2013-02-22 05:05:00,
2013-02-21 21:10:00,40.9,33.9,30.14,SW,227,0.0,0.0,76,0.00,,---,0.01,VWS V14.01,2013-02-22 05:10:00,
2013-02-21 21:15:00,40.7,34.1,30.14,SW,227,0.0,1.0,77,0.00,,---,0.01,VWS V14.01,2013-02-22 05:15:00,
2013-02-21 21:20:00,40.6,34.0,30.14,SW,227,0.0,1.0,77,0.00,,---,0.01,VWS V14.01,2013-02-22 05:20:00,
2013-02-21 21:25:00,40.5,33.9,30.14,SW,227,0.0,0.0,77,0.00,,---,0.01,VWS V14.01,2013-02-22 05:25:00,
2013-02-21 21:30:00,40.4,34.1,30.14,SW,227,0.0,0.0,78,0.00,,---,0.01,VWS V14.01,2013-02-22 05:30:00,
2013-02-21 21:35:00,40.3,34.0,30.14,SW,227,0.0,0.0,78,0.00,,---,0.01,VWS V14.01,2013-02-22 05:35:00,
2013-02-21 21:40:00,40.1,33.8,30.14,SW,227,0.0,0.0,78,0.00,,---,0.01,VWS V14.01,2013-02-22 05:40:00,
2013-02-21 21:45:00,39.9,33.6,30.15,SW,227,0.0,0.0,78,0.00,,---,0.01,VWS V14.01,2013-02-22 05:45:00,
2013-02-21 21:50:00,39.8,33.8,30.15,SW,227,0.0,0.0,79,0.00,,---,0.01,VWS V14.01,2013-02-22 05:50:00,
2013-02-21 21:55:00,39.8,33.8,30.15,SW,227,0.0,0.0,79,0.00,,---,0.01,VWS V14.01,2013-02-22 05:55:00,
2013-02-21 22:00:00,39.7,34.0,30.15,SW,227,0.0,0.0,80,0.00,,---,0.01,VWS V14.01,2013-02-22 06:00:00,
2013-02-21 22:05:00,39.7,34.0,30.15,SW,227,0.0,0.0,80,0.00,,---,0.01,VWS V14.01,2013-02-22 06:05:00,
2013-02-21 22:10:00,39.5,33.8,30.15,SW,227,0.0,0.0,80,0.00,,---,0.01,VWS V14.01,2013-02-22 06:10:00,
2013-02-21 22:15:00,39.4,33.8,30.15,SW,227,0.0,0.0,80,0.00,,---,0.01,VWS V14.01,2013-02-22 06:15:00,
2013-02-21 22:20:00,39.3,34.0,30.15,SW,227,0.0,0.0,81,0.00,,---,0.01,VWS V14.01,2013-02-22 06:20:00,
2013-02-21 22:25:00,39.3,34.3,30.15,SW,227,0.0,0.0,82,0.00,,---,0.01,VWS V14.01,2013-02-22 06:25:00,
2013-02-21 22:30:00,39.2,34.2,30.15,SW,227,0.0,0.0,82,0.00,,---,0.01,VWS V14.01,2013-02-22 06:30:00,
2013-02-21 22:35:00,39.1,34.1,30.15,SW,227,0.0,0.0,82,0.00,,---,0.01,VWS V14.01,2013-02-22 06:35:00,
2013-02-21 22:40:00,38.9,33.9,30.16,SW,227,0.0,0.0,82,0.00,,---,0.01,VWS V14.01,2013-02-22 06:40:00,
2013-02-21 22:45:00,38.9,33.9,30.16,SW,227,0.0,0.0,82,0.00,,---,0.01,VWS V14.01,2013-02-22 06:45:00,
2013-02-21 22:50:00,38.8,34.1,30.16,SW,227,0.0,0.0,83,0.00,,---,0.01,VWS V14.01,2013-02-22 06:50:00,
2013-02-21 22:55:00,38.7,34.0,30.16,SW,227,0.0,0.0,83,0.00,,---,0.01,VWS V14.01,2013-02-22 06:55:00,
2013-02-21 23:00:00,38.6,33.9,30.16,SW,227,0.0,1.0,83,0.00,,---,0.01,VWS V14.01,2013-02-22 07:00:00,
2013-02-21 23:05:00,38.4,33.7,30.16,SW,227,0.0,0.0,83,0.00,,---,0.01,VWS V14.01,2013-02-22 07:05:00,
2013-02-21 23:10:00,38.3,33.6,30.16,SW,227,0.0,0.0,83,0.00,,---,0.01,VWS V14.01,2013-02-22 07:10:00,
2013-02-21 23:15:00,38.2,33.8,30.16,SW,227,0.0,0.0,84,0.00,,---,0.01,VWS V14.01,2013-02-22 07:15:00,
2013-02-21 23:20:00,38.1,33.7,30.16,SW,227,0.0,0.0,84,0.00,,---,0.01,VWS V14.01,2013-02-22 07:20:00,
2013-02-21 23:25:00,38.0,33.6,30.16,SW,227,0.0,0.0,84,0.00,,---,0.01,VWS V14.01,2013-02-22 07:25:00,
2013-02-21 23:30:00,37.8,33.4,30.16,SW,227,0.0,0.0,84,0.00,,---,0.01,VWS V14.01,2013-02-22 07:30:00,
2013-02-21 23:35:00,37.7,33.6,30.16,SW,227,0.0,0.0,85,0.00,,---,0.01,VWS V14.01,2013-02-22 07:35:00,
2013-02-21 23:40:00,37.5,33.4,30.16,SW,227,0.0,0.0,85,0.00,,---,0.01,VWS V14.01,2013-02-22 07:40:00,
2013-02-21 23:45:00,37.4,33.3,30.16,SW,227,0.0,0.0,85,0.00,,---,0.01,VWS V14.01,2013-02-22 07:45:00,
2013-02-21 23:50:00,37.2,33.1,30.16,SW,227,0.0,0.0,85,0.00,,---,0.01,VWS V14.01,2013-02-22 07:50:00,
2013-02-21 23:55:00,37.1,33.3,30.16,SW,227,0.0,0.0,86,0.00,,---,0.01,VWS V14.01,2013-02-22 07:55:00,